contact: severine.martini@mio.osupytheas.fr, dominique.lefevre@mio.osupytheas.fr
Project:EMSO Ligure-ouest http://www.emso-fr.org/EMSO-France
Sensor Optode, line 4330 Serial 272 
DOI : "https://doi.org/10.17882/97948" 
Title:EMSO Ligure Ouest : Data BathyDock capteur Optode - deploiement "2023-04-28"
Datetime,Profondeur,Latitude,Longitude,optode_type,serial,O2_concentration,O2_saturation,Temperature,Calibrated_Phase,Temp_Compensated_Phase,phase_blue_light,phase_red_light,Amplitude_blue_light,Amplitude_red_light,thermistor_bridge
time,m,degree_north,degree_east,1,1,umol.l-1,%,degree_C,degree,degree,degree,degree,mV,mV,mV
2023-11-10T00:00:07,2420,42.8014,5.9826,4330,272,186.615,57.156,13.311,36.029,36.609,41.197,4.588,295.4,544.3,291.2
2023-11-10T00:03:07,2420,42.8014,5.9826,4330,272,186.684,57.179,13.312,36.024,36.604,41.192,4.588,295.5,544.2,291.2
2023-11-10T00:06:07,2420,42.8014,5.9826,4330,272,186.630,57.160,13.310,36.029,36.609,41.195,4.586,295.5,544.2,291.2
2023-11-10T00:09:07,2420,42.8014,5.9826,4330,272,186.585,57.149,13.312,36.030,36.610,41.199,4.588,295.4,544.2,291.1
2023-11-10T00:12:07,2420,42.8014,5.9826,4330,272,186.597,57.153,13.313,36.029,36.609,41.196,4.586,295.4,544.1,291.1
2023-11-10T00:15:07,2420,42.8014,5.9826,4330,272,186.822,57.223,13.314,36.014,36.594,41.186,4.592,295.4,544.3,291.1
2023-11-10T00:18:08,2420,42.8014,5.9826,4330,272,186.576,57.146,13.312,36.031,36.611,41.203,4.592,295.4,544.2,291.2
2023-11-10T00:21:08,2420,42.8014,5.9826,4330,272,186.601,57.159,13.316,36.027,36.607,41.199,4.592,295.4,544.2,291.0
2023-11-10T00:24:08,2420,42.8014,5.9826,4330,272,186.638,57.167,13.314,36.026,36.607,41.197,4.590,295.5,544.2,291.1
2023-11-10T00:27:08,2420,42.8014,5.9826,4330,272,186.556,57.143,13.315,36.032,36.612,41.201,4.590,295.4,544.2,291.1
2023-11-10T00:30:08,2420,42.8014,5.9826,4330,272,186.745,57.204,13.317,36.018,36.598,41.184,4.586,295.4,544.1,291.0
2023-11-10T00:33:07,2420,42.8014,5.9826,4330,272,186.582,57.153,13.317,36.029,36.609,41.203,4.594,295.4,544.2,291.0
2023-11-10T00:36:07,2420,42.8014,5.9826,4330,272,186.623,57.164,13.315,36.027,36.607,41.200,4.593,295.4,544.2,291.1
2023-11-10T00:39:07,2420,42.8014,5.9826,4330,272,186.673,57.180,13.316,36.023,36.603,41.193,4.590,295.4,544.2,291.0
2023-11-10T00:42:07,2420,42.8014,5.9826,4330,272,186.547,57.148,13.321,36.029,36.609,41.202,4.594,295.5,544.2,290.9
2023-11-10T00:45:07,2420,42.8014,5.9826,4330,272,186.690,57.187,13.318,36.022,36.602,41.197,4.595,295.4,544.2,291.0
2023-11-10T00:48:08,2420,42.8014,5.9826,4330,272,186.616,57.166,13.318,36.026,36.606,41.195,4.589,295.4,544.2,291.0
2023-11-10T00:51:08,2420,42.8014,5.9826,4330,272,186.471,57.120,13.317,36.036,36.616,41.206,4.590,295.5,544.2,291.0
2023-11-10T00:54:08,2420,42.8014,5.9826,4330,272,186.431,57.106,13.316,36.039,36.619,41.207,4.588,295.4,544.2,291.0
2023-11-10T00:57:08,2420,42.8014,5.9826,4330,272,186.570,57.147,13.315,36.030,36.610,41.200,4.590,295.4,544.1,291.1
2023-11-10T01:00:08,2420,42.8014,5.9826,4330,272,186.498,57.125,13.315,36.035,36.615,41.203,4.588,295.5,544.2,291.1
2023-11-10T01:03:07,2420,42.8014,5.9826,4330,272,186.580,57.153,13.317,36.028,36.608,41.196,4.588,295.4,544.2,291.0
2023-11-10T01:06:07,2420,42.8014,5.9826,4330,272,186.578,57.154,13.318,36.028,36.608,41.200,4.592,295.5,544.2,291.0
2023-11-10T01:09:07,2420,42.8014,5.9826,4330,272,186.697,57.189,13.317,36.021,36.601,41.192,4.591,295.5,544.3,291.0
2023-11-10T01:12:07,2420,42.8014,5.9826,4330,272,186.532,57.142,13.320,36.030,36.610,41.202,4.591,295.5,544.2,290.9
2023-11-10T01:15:08,2420,42.8014,5.9826,4330,272,186.383,57.093,13.317,36.041,36.621,41.209,4.588,295.4,544.2,291.0
2023-11-10T01:18:08,2420,42.8014,5.9826,4330,272,186.612,57.168,13.321,36.025,36.605,41.198,4.593,295.5,544.2,290.9
2023-11-10T01:21:08,2420,42.8014,5.9826,4330,272,186.416,57.113,13.325,36.035,36.615,41.202,4.587,295.5,544.1,290.7
2023-11-10T01:24:08,2420,42.8014,5.9826,4330,272,186.448,57.118,13.321,36.035,36.615,41.203,4.588,295.5,544.2,290.9
2023-11-10T01:27:07,2420,42.8014,5.9826,4330,272,186.345,57.089,13.324,36.041,36.621,41.210,4.590,295.4,544.2,290.8
2023-11-10T01:30:07,2420,42.8014,5.9826,4330,272,186.414,57.107,13.321,36.037,36.617,41.207,4.589,295.4,544.2,290.9
2023-11-10T01:33:07,2420,42.8014,5.9826,4330,272,186.363,57.094,13.323,36.040,36.620,41.210,4.591,295.4,544.2,290.8
2023-11-10T01:36:07,2420,42.8014,5.9826,4330,272,186.565,57.153,13.320,36.028,36.608,41.197,4.589,295.5,544.2,290.9
2023-11-10T01:39:07,2420,42.8014,5.9826,4330,272,186.589,57.159,13.319,36.027,36.607,41.201,4.594,295.5,544.2,290.9
2023-11-10T01:42:07,2420,42.8014,5.9826,4330,272,186.516,57.150,13.330,36.026,36.607,41.197,4.590,295.5,544.2,290.6
2023-11-10T01:45:07,2420,42.8014,5.9826,4330,272,186.339,57.081,13.318,36.043,36.623,41.210,4.586,295.5,544.1,291.0
2023-11-10T01:48:08,2420,42.8014,5.9826,4330,272,186.460,57.117,13.317,36.037,36.617,41.208,4.591,295.5,544.2,291.0
2023-11-10T01:51:08,2420,42.8014,5.9826,4330,272,186.342,57.082,13.318,36.044,36.624,41.213,4.590,295.5,544.2,291.0
2023-11-10T01:54:08,2420,42.8014,5.9826,4330,272,186.370,57.087,13.316,36.042,36.622,41.212,4.590,295.5,544.2,291.0
2023-11-10T01:57:08,2420,42.8014,5.9826,4330,272,186.450,57.118,13.320,36.035,36.615,41.207,4.592,295.6,544.2,290.9
2023-11-10T02:00:07,2420,42.8014,5.9826,4330,272,186.394,57.094,13.316,36.041,36.621,41.212,4.590,295.5,544.2,291.0
2023-11-10T02:03:07,2420,42.8014,5.9826,4330,272,186.471,57.123,13.320,36.035,36.615,41.204,4.589,295.5,544.2,290.9
2023-11-10T02:06:07,2420,42.8014,5.9826,4330,272,186.612,57.162,13.316,36.027,36.607,41.200,4.592,295.5,544.1,291.0
2023-11-10T02:09:07,2420,42.8014,5.9826,4330,272,186.601,57.170,13.325,36.023,36.604,41.193,4.589,295.5,544.1,290.7
2023-11-10T02:12:07,2420,42.8014,5.9826,4330,272,186.512,57.139,13.323,36.030,36.610,41.202,4.592,295.5,544.1,290.8
2023-11-10T02:15:08,2420,42.8014,5.9826,4330,272,186.320,57.076,13.319,36.045,36.625,41.213,4.589,295.5,544.2,290.9
2023-11-10T02:18:08,2420,42.8014,5.9826,4330,272,186.408,57.106,13.322,36.038,36.618,41.208,4.590,295.5,544.2,290.8
2023-11-10T02:21:08,2420,42.8014,5.9826,4330,272,186.569,57.151,13.318,36.029,36.609,41.200,4.591,295.5,544.2,291.0
2023-11-10T02:24:08,2420,42.8014,5.9826,4330,272,186.215,57.039,13.315,36.053,36.633,41.217,4.584,295.5,544.2,291.1
2023-11-10T02:27:08,2420,42.8014,5.9826,4330,272,186.573,57.149,13.316,36.030,36.610,41.202,4.592,295.4,544.2,291.0
2023-11-10T02:30:07,2420,42.8014,5.9826,4330,272,186.614,57.158,13.313,36.028,36.609,41.203,4.595,295.5,544.2,291.1
2023-11-10T02:33:07,2420,42.8014,5.9826,4330,272,186.595,57.154,13.314,36.029,36.609,41.201,4.591,295.5,544.3,291.1
2023-11-10T02:36:07,2420,42.8014,5.9826,4330,272,186.399,57.098,13.318,36.040,36.620,41.211,4.591,295.6,544.2,291.0
2023-11-10T02:39:07,2420,42.8014,5.9826,4330,272,186.450,57.116,13.319,36.037,36.617,41.209,4.592,295.4,544.2,290.9
2023-11-10T02:42:08,2420,42.8014,5.9826,4330,272,186.579,57.149,13.314,36.030,36.610,41.200,4.589,295.6,544.2,291.1
2023-11-10T02:45:08,2420,42.8014,5.9826,4330,272,186.395,57.090,13.312,36.043,36.623,41.214,4.591,295.6,544.3,291.2
2023-11-10T02:48:08,2420,42.8014,5.9826,4330,272,186.552,57.140,13.314,36.032,36.612,41.198,4.586,295.5,544.3,291.1
2023-11-10T02:51:08,2420,42.8014,5.9826,4330,272,186.471,57.121,13.318,36.035,36.616,41.206,4.591,295.4,544.3,291.0
2023-11-10T02:54:08,2420,42.8014,5.9826,4330,272,186.544,57.140,13.315,36.032,36.612,41.202,4.590,295.5,544.2,291.1
2023-11-10T02:57:07,2420,42.8014,5.9826,4330,272,186.379,57.089,13.315,36.043,36.623,41.209,4.586,295.5,544.3,291.1
2023-11-10T03:00:07,2420,42.8014,5.9826,4330,272,186.545,57.142,13.317,36.031,36.611,41.204,4.593,295.5,544.2,291.0
2023-11-10T03:03:07,2420,42.8014,5.9826,4330,272,186.674,57.179,13.315,36.023,36.603,41.196,4.593,295.5,544.2,291.1
2023-11-10T03:06:07,2420,42.8014,5.9826,4330,272,186.367,57.085,13.315,36.043,36.623,41.211,4.588,295.5,544.2,291.1
2023-11-10T03:09:07,2420,42.8014,5.9826,4330,272,186.410,57.098,13.314,36.041,36.621,41.213,4.591,295.5,544.2,291.1
2023-11-10T03:12:07,2420,42.8014,5.9826,4330,272,186.658,57.179,13.318,36.023,36.603,41.193,4.590,295.5,544.2,291.0
2023-11-10T03:15:08,2420,42.8014,5.9826,4330,272,186.456,57.121,13.322,36.034,36.614,41.207,4.593,295.5,544.2,290.8
2023-11-10T03:18:08,2420,42.8014,5.9826,4330,272,186.433,57.109,13.318,36.037,36.617,41.208,4.591,295.5,544.2,291.0
2023-11-10T03:21:08,2420,42.8014,5.9826,4330,272,186.414,57.110,13.323,36.036,36.616,41.211,4.595,295.6,544.2,290.8
2023-11-10T03:24:08,2420,42.8014,5.9826,4330,272,186.265,57.066,13.325,36.045,36.625,41.213,4.588,295.5,544.1,290.7
2023-11-10T03:27:08,2420,42.8014,5.9826,4330,272,186.276,57.057,13.314,36.050,36.630,41.217,4.587,295.5,544.2,291.1
2023-11-10T03:30:07,2420,42.8014,5.9826,4330,272,186.388,57.093,13.316,36.041,36.622,41.211,4.589,295.6,544.2,291.0
2023-11-10T03:33:07,2420,42.8014,5.9826,4330,272,186.386,57.099,13.321,36.039,36.619,41.209,4.590,295.5,544.1,290.9
2023-11-10T03:36:07,2420,42.8014,5.9826,4330,272,186.499,57.127,13.316,36.034,36.614,41.209,4.595,295.5,544.2,291.0
2023-11-10T03:39:07,2420,42.8014,5.9826,4330,272,186.640,57.172,13.317,36.025,36.605,41.201,4.596,295.5,544.2,291.0
2023-11-10T03:42:07,2420,42.8014,5.9826,4330,272,186.711,57.190,13.314,36.022,36.602,41.195,4.594,295.5,544.2,291.1
2023-11-10T03:45:08,2420,42.8014,5.9826,4330,272,186.316,57.070,13.315,36.047,36.627,41.212,4.585,295.5,544.2,291.1
2023-11-10T03:48:08,2420,42.8014,5.9826,4330,272,186.409,57.106,13.321,36.038,36.618,41.209,4.591,295.5,544.2,290.9
2023-11-10T03:51:08,2420,42.8014,5.9826,4330,272,186.291,57.073,13.323,36.044,36.624,41.217,4.593,295.5,544.2,290.8
2023-11-10T03:54:08,2420,42.8014,5.9826,4330,272,186.720,57.200,13.320,36.018,36.598,41.190,4.592,295.6,544.2,290.9
2023-11-10T03:57:07,2420,42.8014,5.9826,4330,272,186.382,57.091,13.316,36.043,36.623,41.211,4.589,295.6,544.2,291.0
2023-11-10T04:00:07,2420,42.8014,5.9826,4330,272,186.419,57.105,13.318,36.038,36.618,41.208,4.590,295.6,544.2,291.0
2023-11-10T04:03:07,2420,42.8014,5.9826,4330,272,186.469,57.128,13.324,36.033,36.613,41.202,4.589,295.4,544.3,290.8
2023-11-10T04:06:07,2420,42.8014,5.9826,4330,272,186.503,57.142,13.327,36.029,36.609,41.201,4.591,295.6,544.2,290.7
2023-11-10T04:09:07,2420,42.8014,5.9826,4330,272,186.372,57.096,13.322,36.039,36.619,41.210,4.590,295.6,544.2,290.8
2023-11-10T04:12:07,2420,42.8014,5.9826,4330,272,186.557,57.150,13.320,36.028,36.608,41.200,4.592,295.5,544.3,290.9
2023-11-10T04:15:07,2420,42.8014,5.9826,4330,272,186.615,57.163,13.316,36.027,36.607,41.200,4.593,295.6,544.2,291.0
2023-11-10T04:18:08,2420,42.8014,5.9826,4330,272,186.458,57.122,13.322,36.034,36.614,41.206,4.592,295.6,544.3,290.8
2023-11-10T04:21:08,2420,42.8014,5.9826,4330,272,186.167,57.033,13.322,36.053,36.633,41.220,4.588,295.5,544.2,290.8
2023-11-10T04:24:08,2420,42.8014,5.9826,4330,272,186.341,57.079,13.316,36.044,36.624,41.220,4.596,295.6,544.2,291.0
2023-11-10T04:27:08,2420,42.8014,5.9826,4330,272,186.316,57.066,13.312,36.048,36.628,41.215,4.587,295.5,544.3,291.2
2023-11-10T04:30:08,2420,42.8014,5.9826,4330,272,186.385,57.107,13.328,36.036,36.616,41.211,4.594,295.5,544.2,290.6
2023-11-10T04:33:07,2420,42.8014,5.9826,4330,272,186.522,57.139,13.320,36.031,36.611,41.203,4.592,295.5,544.2,290.9
2023-11-10T04:36:07,2420,42.8014,5.9826,4330,272,186.522,57.135,13.317,36.032,36.612,41.204,4.592,295.6,544.2,291.0
2023-11-10T04:39:07,2420,42.8014,5.9826,4330,272,186.376,57.084,13.312,36.045,36.625,41.212,4.588,295.5,544.3,291.2
2023-11-10T04:42:07,2420,42.8014,5.9826,4330,272,186.522,57.126,13.310,36.036,36.616,41.203,4.587,295.5,544.2,291.2
2023-11-10T04:45:07,2420,42.8014,5.9826,4330,272,186.600,57.148,13.309,36.031,36.611,41.206,4.594,295.5,544.3,291.3
2023-11-10T04:48:07,2420,42.8014,5.9826,4330,272,186.509,57.120,13.308,36.038,36.618,41.209,4.592,295.6,544.3,291.3
2023-11-10T04:51:08,2420,42.8014,5.9826,4330,272,186.725,57.186,13.308,36.024,36.604,41.199,4.595,295.5,544.3,291.3
2023-11-10T04:54:08,2420,42.8014,5.9826,4330,272,186.623,57.159,13.311,36.029,36.609,41.198,4.589,295.5,544.3,291.2
2023-11-10T04:57:08,2420,42.8014,5.9826,4330,272,186.520,57.122,13.307,36.037,36.617,41.205,4.588,295.5,544.3,291.3
2023-11-10T05:00:08,2420,42.8014,5.9826,4330,272,186.817,57.216,13.310,36.017,36.597,41.187,4.590,295.5,544.3,291.2
2023-11-10T05:03:07,2420,42.8014,5.9826,4330,272,186.575,57.140,13.308,36.033,36.613,41.203,4.590,295.4,544.3,291.3
2023-11-10T05:06:07,2420,42.8014,5.9826,4330,272,186.344,57.070,13.308,36.048,36.628,41.215,4.587,295.5,544.3,291.3
2023-11-10T05:09:07,2420,42.8014,5.9826,4330,272,186.785,57.206,13.309,36.019,36.599,41.190,4.591,295.5,544.3,291.3
2023-11-10T05:12:07,2420,42.8014,5.9826,4330,272,186.560,57.135,13.308,36.034,36.615,41.208,4.593,295.5,544.3,291.3
2023-11-10T05:15:07,2420,42.8014,5.9826,4330,272,186.825,57.218,13.309,36.017,36.597,41.191,4.593,295.5,544.3,291.3
2023-11-10T05:18:07,2420,42.8014,5.9826,4330,272,186.357,57.073,13.308,36.048,36.628,41.218,4.590,295.5,544.3,291.3
2023-11-10T05:21:08,2420,42.8014,5.9826,4330,272,186.589,57.147,13.310,36.032,36.612,41.200,4.588,295.5,544.3,291.2
2023-11-10T05:24:08,2420,42.8014,5.9826,4330,272,186.541,57.136,13.313,36.033,36.613,41.203,4.590,295.5,544.3,291.1
2023-11-10T05:27:08,2420,42.8014,5.9826,4330,272,186.738,57.190,13.308,36.023,36.603,41.197,4.594,295.5,544.3,291.3
2023-11-10T05:30:08,2420,42.8014,5.9826,4330,272,186.679,57.173,13.309,36.026,36.606,41.192,4.586,295.5,544.3,291.3
2023-11-10T05:33:07,2420,42.8014,5.9826,4330,272,186.576,57.143,13.310,36.033,36.613,41.202,4.589,295.5,544.2,291.2
2023-11-10T05:36:07,2420,42.8014,5.9826,4330,272,186.738,57.190,13.308,36.022,36.603,41.191,4.589,295.5,544.2,291.3
2023-11-10T05:39:07,2420,42.8014,5.9826,4330,272,186.653,57.163,13.307,36.029,36.609,41.202,4.593,295.5,544.3,291.3
2023-11-10T05:42:07,2420,42.8014,5.9826,4330,272,186.577,57.141,13.308,36.034,36.614,41.205,4.591,295.4,544.3,291.3
2023-11-10T05:45:07,2420,42.8014,5.9826,4330,272,186.439,57.098,13.308,36.042,36.622,41.208,4.586,295.4,544.3,291.3
2023-11-10T05:48:08,2420,42.8014,5.9826,4330,272,186.502,57.120,13.310,36.037,36.617,41.202,4.585,295.4,544.3,291.2
2023-11-10T05:51:08,2420,42.8014,5.9826,4330,272,186.717,57.183,13.308,36.024,36.604,41.194,4.590,295.4,544.3,291.3
2023-11-10T05:54:08,2420,42.8014,5.9826,4330,272,186.577,57.146,13.312,36.032,36.612,41.200,4.588,295.4,544.2,291.2
2023-11-10T05:57:08,2420,42.8014,5.9826,4330,272,186.619,57.155,13.309,36.030,36.610,41.198,4.587,295.4,544.3,291.3
2023-11-10T06:00:07,2420,42.8014,5.9826,4330,272,186.595,57.147,13.309,36.032,36.612,41.202,4.591,295.5,544.3,291.3
2023-11-10T06:03:07,2420,42.8014,5.9826,4330,272,186.868,57.233,13.311,36.013,36.593,41.185,4.592,295.4,544.2,291.2
2023-11-10T06:06:07,2420,42.8014,5.9826,4330,272,186.589,57.147,13.310,36.031,36.612,41.201,4.589,295.5,544.2,291.2
2023-11-10T06:09:07,2420,42.8014,5.9826,4330,272,186.585,57.147,13.311,36.032,36.612,41.198,4.586,295.5,544.3,291.2
2023-11-10T06:12:07,2420,42.8014,5.9826,4330,272,186.599,57.151,13.311,36.031,36.611,41.203,4.592,295.5,544.2,291.2
2023-11-10T06:15:07,2420,42.8014,5.9826,4330,272,186.661,57.164,13.306,36.028,36.609,41.199,4.590,295.5,544.3,291.3
2023-11-10T06:18:08,2420,42.8014,5.9826,4330,272,186.788,57.208,13.310,36.019,36.599,41.191,4.593,295.5,544.2,291.2
2023-11-10T06:21:08,2420,42.8014,5.9826,4330,272,186.594,57.145,13.307,36.032,36.612,41.204,4.592,295.5,544.3,291.3
2023-11-10T06:24:08,2420,42.8014,5.9826,4330,272,186.711,57.179,13.306,36.026,36.606,41.193,4.587,295.5,544.3,291.4
2023-11-10T06:27:08,2420,42.8014,5.9826,4330,272,186.372,57.079,13.309,36.046,36.626,41.218,4.592,295.5,544.3,291.3
2023-11-10T06:30:08,2420,42.8014,5.9826,4330,272,186.639,57.161,13.309,36.029,36.609,41.201,4.591,295.5,544.2,291.3
2023-11-10T06:33:07,2420,42.8014,5.9826,4330,272,186.527,57.134,13.314,36.033,36.613,41.200,4.586,295.4,544.3,291.1
2023-11-10T06:36:07,2420,42.8014,5.9826,4330,272,186.684,57.173,13.308,36.026,36.606,41.193,4.587,295.5,544.2,291.3
2023-11-10T06:39:07,2420,42.8014,5.9826,4330,272,186.549,57.135,13.310,36.034,36.614,41.205,4.591,295.5,544.3,291.2
2023-11-10T06:42:07,2420,42.8014,5.9826,4330,272,186.634,57.159,13.309,36.029,36.609,41.202,4.593,295.5,544.3,291.3
2023-11-10T06:45:07,2420,42.8014,5.9826,4330,272,186.653,57.167,13.310,36.027,36.607,41.194,4.587,295.4,544.3,291.2
2023-11-10T06:48:08,2420,42.8014,5.9826,4330,272,186.498,57.117,13.308,36.038,36.618,41.206,4.588,295.4,544.2,291.3
2023-11-10T06:51:08,2420,42.8014,5.9826,4330,272,186.801,57.214,13.311,36.017,36.597,41.183,4.586,295.5,544.2,291.2
2023-11-10T06:54:08,2420,42.8014,5.9826,4330,272,186.361,57.075,13.308,36.047,36.627,41.214,4.587,295.4,544.3,291.3
2023-11-10T06:57:08,2420,42.8014,5.9826,4330,272,186.493,57.118,13.310,36.038,36.618,41.205,4.587,295.4,544.3,291.2
2023-11-10T07:00:08,2420,42.8014,5.9826,4330,272,186.538,57.130,13.309,36.035,36.615,41.207,4.592,295.4,544.2,291.3
2023-11-10T07:03:07,2420,42.8014,5.9826,4330,272,186.659,57.168,13.309,36.028,36.608,41.200,4.592,295.4,544.2,291.2
2023-11-10T07:06:07,2420,42.8014,5.9826,4330,272,186.799,57.209,13.308,36.019,36.599,41.191,4.592,295.5,544.3,291.3
2023-11-10T07:09:07,2420,42.8014,5.9826,4330,272,186.681,57.176,13.311,36.025,36.605,41.194,4.589,295.5,544.3,291.2
2023-11-10T07:12:07,2420,42.8014,5.9826,4330,272,186.394,57.092,13.314,36.043,36.623,41.216,4.593,295.4,544.2,291.1
2023-11-10T07:15:07,2420,42.8014,5.9826,4330,272,186.654,57.165,13.308,36.028,36.608,41.197,4.589,295.4,544.2,291.3
2023-11-10T07:18:08,2420,42.8014,5.9826,4330,272,186.701,57.180,13.309,36.025,36.605,41.191,4.586,295.5,544.2,291.3
2023-11-10T07:21:08,2420,42.8014,5.9826,4330,272,186.716,57.186,13.310,36.023,36.604,41.195,4.591,295.4,544.2,291.2
2023-11-10T07:24:08,2420,42.8014,5.9826,4330,272,186.506,57.122,13.311,36.037,36.617,41.208,4.591,295.4,544.2,291.2
2023-11-10T07:27:08,2420,42.8014,5.9826,4330,272,186.699,57.180,13.309,36.025,36.605,41.194,4.588,295.4,544.2,291.3
2023-11-10T07:30:07,2420,42.8014,5.9826,4330,272,186.792,57.211,13.311,36.018,36.598,41.192,4.594,295.3,544.3,291.2
2023-11-10T07:33:07,2420,42.8014,5.9826,4330,272,186.730,57.188,13.308,36.023,36.603,41.196,4.592,295.5,544.3,291.3
2023-11-10T07:36:07,2420,42.8014,5.9826,4330,272,186.676,57.172,13.309,36.026,36.607,41.195,4.588,295.4,544.2,291.3
2023-11-10T07:39:07,2420,42.8014,5.9826,4330,272,186.627,57.158,13.309,36.029,36.610,41.198,4.589,295.4,544.3,291.2
2023-11-10T07:42:07,2420,42.8014,5.9826,4330,272,186.619,57.154,13.308,36.030,36.610,41.197,4.587,295.5,544.3,291.3
2023-11-10T07:45:07,2420,42.8014,5.9826,4330,272,186.690,57.177,13.309,36.025,36.606,41.199,4.594,295.5,544.3,291.2
2023-11-10T07:48:07,2420,42.8014,5.9826,4330,272,186.602,57.149,13.308,36.031,36.611,41.203,4.592,295.4,544.3,291.3
2023-11-10T07:51:08,2420,42.8014,5.9826,4330,272,186.584,57.142,13.307,36.034,36.614,41.204,4.590,295.5,544.2,291.3
2023-11-10T07:54:08,2420,42.8014,5.9826,4330,272,186.493,57.116,13.309,36.038,36.618,41.204,4.586,295.5,544.2,291.3
2023-11-10T07:57:08,2420,42.8014,5.9826,4330,272,186.390,57.085,13.309,36.045,36.625,41.215,4.590,295.4,544.2,291.3
2023-11-10T08:00:08,2420,42.8014,5.9826,4330,272,186.829,57.218,13.308,36.017,36.597,41.187,4.590,295.5,544.3,291.3
2023-11-10T08:03:07,2420,42.8014,5.9826,4330,272,186.675,57.172,13.309,36.026,36.606,41.196,4.589,295.5,544.3,291.3
2023-11-10T08:06:07,2420,42.8014,5.9826,4330,272,186.474,57.111,13.310,36.039,36.619,41.206,4.587,295.5,544.3,291.2
2023-11-10T08:09:07,2420,42.8014,5.9826,4330,272,186.679,57.173,13.309,36.026,36.606,41.197,4.591,295.4,544.2,291.3
2023-11-10T08:12:07,2420,42.8014,5.9826,4330,272,186.813,57.214,13.309,36.017,36.597,41.185,4.587,295.4,544.2,291.3
2023-11-10T08:15:07,2420,42.8014,5.9826,4330,272,186.741,57.192,13.309,36.022,36.602,41.187,4.584,295.5,544.3,291.3
2023-11-10T08:18:07,2420,42.8014,5.9826,4330,272,186.741,57.191,13.308,36.022,36.603,41.195,4.592,295.4,544.3,291.3
2023-11-10T08:21:07,2420,42.8014,5.9826,4330,272,186.774,57.205,13.311,36.019,36.599,41.192,4.593,295.4,544.2,291.2
2023-11-10T08:24:08,2420,42.8014,5.9826,4330,272,186.610,57.151,13.308,36.031,36.611,41.198,4.586,295.4,544.3,291.3
2023-11-10T08:27:08,2420,42.8014,5.9826,4330,272,186.611,57.154,13.310,36.030,36.610,41.198,4.588,295.4,544.3,291.2
2023-11-10T08:30:08,2420,42.8014,5.9826,4330,272,186.529,57.127,13.309,36.036,36.616,41.203,4.587,295.5,544.3,291.3
2023-11-10T08:33:07,2420,42.8014,5.9826,4330,272,186.538,57.129,13.308,36.036,36.616,41.203,4.587,295.5,544.2,291.3
2023-11-10T08:36:07,2420,42.8014,5.9826,4330,272,186.822,57.214,13.307,36.018,36.598,41.187,4.588,295.5,544.3,291.3
2023-11-10T08:39:07,2420,42.8014,5.9826,4330,272,186.667,57.171,13.310,36.026,36.606,41.202,4.596,295.5,544.3,291.2
2023-11-10T08:42:07,2420,42.8014,5.9826,4330,272,186.493,57.118,13.310,36.038,36.618,41.208,4.590,295.4,544.2,291.2
2023-11-10T08:45:07,2420,42.8014,5.9826,4330,272,186.517,57.120,13.306,36.038,36.618,41.207,4.589,295.4,544.2,291.4
2023-11-10T08:48:08,2420,42.8014,5.9826,4330,272,186.648,57.161,13.307,36.029,36.609,41.202,4.593,295.4,544.3,291.3
2023-11-10T08:51:08,2420,42.8014,5.9826,4330,272,186.882,57.234,13.308,36.014,36.594,41.184,4.590,295.5,544.3,291.3
2023-11-10T08:54:08,2420,42.8014,5.9826,4330,272,186.623,57.152,13.306,36.031,36.611,41.203,4.592,295.4,544.3,291.4
2023-11-10T08:57:07,2420,42.8014,5.9826,4330,272,186.582,57.139,13.305,36.034,36.614,41.203,4.588,295.4,544.3,291.4
2023-11-10T09:00:07,2420,42.8014,5.9826,4330,272,186.835,57.217,13.306,36.017,36.597,41.191,4.593,295.4,544.3,291.4
2023-11-10T09:03:07,2420,42.8014,5.9826,4330,272,186.810,57.211,13.307,36.019,36.599,41.189,4.590,295.4,544.3,291.3
2023-11-10T09:06:07,2420,42.8014,5.9826,4330,272,186.482,57.114,13.310,36.038,36.618,41.204,4.585,295.4,544.3,291.2
2023-11-10T09:09:07,2420,42.8014,5.9826,4330,272,186.835,57.218,13.306,36.018,36.598,41.190,4.592,295.4,544.2,291.3
2023-11-10T09:12:07,2420,42.8014,5.9826,4330,272,186.679,57.174,13.310,36.025,36.606,41.194,4.589,295.4,544.3,291.2
2023-11-10T09:15:08,2420,42.8014,5.9826,4330,272,186.501,57.116,13.307,36.038,36.619,41.207,4.589,295.4,544.3,291.3
2023-11-10T09:18:08,2420,42.8014,5.9826,4330,272,186.377,57.078,13.306,36.047,36.627,41.217,4.590,295.4,544.3,291.3
2023-11-10T09:21:08,2420,42.8014,5.9826,4330,272,186.644,57.162,13.308,36.029,36.609,41.197,4.588,295.4,544.2,291.3
2023-11-10T09:24:08,2420,42.8014,5.9826,4330,272,186.698,57.179,13.309,36.025,36.605,41.198,4.593,295.4,544.3,291.3
2023-11-10T09:27:08,2420,42.8014,5.9826,4330,272,186.681,57.174,13.309,36.026,36.606,41.196,4.590,295.5,544.2,291.2
2023-11-10T09:30:08,2420,42.8014,5.9826,4330,272,186.706,57.184,13.311,36.023,36.604,41.192,4.589,295.5,544.2,291.2
2023-11-10T09:33:07,2420,42.8014,5.9826,4330,272,186.324,57.065,13.309,36.049,36.629,41.215,4.586,295.4,544.2,291.3
2023-11-10T09:36:07,2420,42.8014,5.9826,4330,272,186.871,57.231,13.308,36.014,36.594,41.182,4.588,295.4,544.2,291.3
2023-11-10T09:39:07,2420,42.8014,5.9826,4330,272,186.495,57.116,13.308,36.039,36.619,41.207,4.588,295.4,544.3,291.3
2023-11-10T09:42:07,2420,42.8014,5.9826,4330,272,186.596,57.147,13.308,36.032,36.612,41.201,4.589,295.4,544.2,291.3
2023-11-10T09:45:08,2420,42.8014,5.9826,4330,272,186.567,57.139,13.309,36.034,36.614,41.200,4.586,295.5,544.3,291.3
2023-11-10T09:48:08,2420,42.8014,5.9826,4330,272,186.483,57.113,13.309,36.039,36.619,41.211,4.592,295.5,544.3,291.3
2023-11-10T09:51:08,2420,42.8014,5.9826,4330,272,186.467,57.110,13.310,36.040,36.620,41.211,4.592,295.4,544.3,291.2
2023-11-10T09:54:08,2420,42.8014,5.9826,4330,272,186.951,57.253,13.306,36.009,36.590,41.183,4.593,295.5,544.2,291.3
2023-11-10T09:57:08,2420,42.8014,5.9826,4330,272,186.647,57.161,13.307,36.029,36.609,41.204,4.595,295.4,544.3,291.3
2023-11-10T10:00:07,2420,42.8014,5.9826,4330,272,186.753,57.197,13.310,36.021,36.601,41.192,4.592,295.4,544.3,291.2